User: anonymous   Login
Location: Ballingbuur
(53.0000°N, 5.7667°E)
Time: 16:51:59
(UTC+00:00)
Language:

YAOGAN 6 - Orbit

View from above orbital plane
View from above orbital plane
View from above satellite
View from above satellite

Ground track
Ground track

The orbit data is extracted from the following two-line orbital elements,

1 34839U 09021A   21058.94993749  .00000756  00000-0  30563-4 0  9998
2 34839  97.0448  58.9228 0027308 186.6700 173.4181 15.27306365658791
Epoch (UTC): 27 February 2021 22:47:54
Eccentricity: 0.0027308
inclination: 97.0448°
perigee height: 465 km
apogee height: 502 km
right ascension of ascending node: 58.9228°
argument of perigee: 186.6700°
revolutions per day: 15.27306365
mean anomaly at epoch: 173.4181°
orbit number at epoch: 65879

The dashed part of the orbit path shows where the satellite is in the earth's shadow,  

DLR